Stations météo

réclame
Mon MeteoGroup
Volkel, Pays-Bas (6375): Température de l'air & dewpoint: 12.11.2019 23:00:00 - 18.11.2019 23:00:00 (CET)Volkel, Pays-Bas (6375): Température de l'air 5cm: 12.11.2019 23:00:00 - 18.11.2019 23:00:00 (CET)Volkel, Pays-Bas (6375): Vitesse du vent & gusts: 12.11.2019 23:00:00 - 18.11.2019 23:00:00 (CET)Volkel, Pays-Bas (6375): Direction du vent: 12.11.2019 23:00:00 - 18.11.2019 23:00:00 (CET)Volkel, Pays-Bas (6375): reduced air pressure: 12.11.2019 23:00:00 - 18.11.2019 23:00:00 (CET)Volkel, Pays-Bas (6375): visibility: 12.11.2019 23:00:00 - 18.11.2019 23:00:00 (CET)Volkel, Pays-Bas (6375): Quantités de précipitations: 12.11.2019 23:00:00 - 18.11.2019 23:00:00 (CET)
Date & Time tt [°C] td [°C] tt 5cm [°C] ff [km/h] ff [knt] fx [km/h] fx [knt] dd ppp [hPa] vv [km] rr [mm]
18.11.2019 23:00:00 6,9 4,5 6,3 15 8 29 16 WNW 1010,2 10 0,0
18.11.2019 22:00:00 7,2 5,8 6,7 13 7 29 16 WNW 1009,6 10 0,0
18.11.2019 21:00:00 7,3 6,7 6,9 11 6 22 12 W 1009,0 6 0,1
18.11.2019 20:00:00 7,0 6,6 6,7 11 6 25 14 W 1008,4 4,3 0,2
18.11.2019 19:00:00 6,6 6,2 6,4 13 7 22 12 W 1008,0 2,8 0,3
18.11.2019 18:00:00 6,9 6,2 6,6 11 6 22 12 W 1007,9 6 0,4
18.11.2019 17:00:00 7,0 6,5 6,7 13 7 22 12 W 1007,6 8 0,2
18.11.2019 16:00:00 6,9 6,3 6,7 11 6 18 10 W 1007,4 5 0,8
18.11.2019 15:00:00 6,9 6,3 6,8 8 4 18 10 W 1007,3 10 0,3
18.11.2019 14:00:00 7,2 6,0 6,9 9 5 18 10 WNW 1007,1 10 0,0
18.11.2019 13:00:00 6,9 5,6 6,7 11 6 22 12 NW 1007,2 10 0,0
18.11.2019 12:00:00 6,7 5,4 6,6 11 6 22 12 NW 1007,2 10 0,0
18.11.2019 11:00:00 6,1 5,0 6,0 13 7 22 12 NW 1007,7 10 0,0
18.11.2019 10:00:00 5,5 4,5 5,4 11 6 22 12 NW 1007,8 10 0,0
18.11.2019 09:00:00 5,1 4,4 4,9 9 5 25 14 NW 1007,9 10 0,0
18.11.2019 08:00:00 5,0 4,2 4,7 13 7 25 14 NNW 1007,6 10 0,0
18.11.2019 07:00:00 4,7 3,8 4,4 15 8 29 16 NNW 1007,5 10 0,1
18.11.2019 06:00:00 4,3 3,6 4,1 16 9 32 18 NNW 1007,0 10 0,5
18.11.2019 05:00:00 4,3 3,4 4,1 15 8 29 16 NNW 1007,4 9 0,5
18.11.2019 04:00:00 4,3 3,4 4,0 15 8 32 18 NNW 1007,3 9 0,5
18.11.2019 03:00:00 4,3 3,6 4,0 13 7 22 12 NNW 1007,7 6 1,1
18.11.2019 02:00:00 4,2 3,7 4,0 9 5 22 12 NNW 1008,2 4,6 1,0
18.11.2019 01:00:00 4,2 3,5 3,9 9 5 18 10 NNW 1008,5 5 1,1
18.11.2019 00:00:00 4,1 3,4 3,8 9 5 18 10 NNW 1008,9 4,8 2,2
17.11.2019 23:00:00 4,2 3,2 3,9 8 4 14 8 N 1009,3 5 1,2
17.11.2019 22:00:00 4,5 2,7 4,1 8 4 18 10 N 1009,6 8 0,1
17.11.2019 21:00:00 4,4 2,5 4,0 13 7 18 10 N 1009,6 10 0,0
17.11.2019 20:00:00 4,5 2,6 4,0 9 5 18 10 N 1010,3 10 0,0
17.11.2019 19:00:00 4,5 2,7 3,9 8 4 18 10 N 1010,3 10 0,0
17.11.2019 18:00:00 4,9 2,7 4,2 11 6 18 10 NNW 1010,3 10 0,0
17.11.2019 17:00:00 4,9 2,7 4,0 9 5 14 8 N 1010,5 10 0,0
17.11.2019 16:00:00 5,5 2,9 4,8 8 4 14 8 N 1011,0 10 0,0
17.11.2019 15:00:00 6,1 3,3 5,9 9 5 18 10 NE 1011,6 10 0,0
17.11.2019 14:00:00 6,6 3,2 6,8 9 5 14 8 NNE 1011,2 10 0,0
17.11.2019 13:00:00 6,1 2,9 6,7 5 3 11 6 NNE 1011,6 10 0,0
17.11.2019 12:00:00 3,6 2,2 3,6 9 5 18 10 ENE 1012,1 7 0,0
17.11.2019 11:00:00 2,9 1,5 3,2 2 1 7 4 - 1012,2 9 0,0
17.11.2019 10:00:00 0,5 0,2 -0,6 4 2 4 2 NNE 1012,5 5 0,0
17.11.2019 09:00:00 -0,4 -0,8 -3,3 2 1 7 4 - 1012,8 5 0,0
17.11.2019 08:00:00 -0,4 -0,9 -2,8 5 3 14 8 ESE 1012,7 9 0,0
17.11.2019 07:00:00 -0,9 -1,4 -3,3 5 3 11 6 E 1012,3 6 0,0
17.11.2019 06:00:00 -0,2 -0,8 -2,7 5 3 7 4 E 1011,6 8 0,0
17.11.2019 05:00:00 1,3 0,6 -1,8 5 3 7 4 E 1011,6 10 0,0
17.11.2019 04:00:00 3,8 1,7 3,3 8 4 14 8 SSE 1011,8 10 0,0
17.11.2019 03:00:00 4,5 1,9 3,8 9 5 14 8 SSE 1012,2 10 0,0
17.11.2019 02:00:00 4,4 2,0 3,0 4 2 11 6 S 1011,6 10 0,0
17.11.2019 01:00:00 4,9 2,2 4,2 8 4 14 8 S 1011,8 10 0,0
17.11.2019 00:00:00 4,8 2,2 3,9 5 3 11 6 S 1011,3 10 0,0
16.11.2019 23:00:00 4,9 2,5 3,9 5 3 14 8 S 1011,2 10 0,0
16.11.2019 22:00:00 5,6 2,5 5,0 9 5 18 10 S 1011,2 10 0,0
16.11.2019 21:00:00 5,7 2,5 4,8 9 5 22 12 S 1011,1 10 0,0
16.11.2019 20:00:00 5,4 2,5 3,9 11 6 18 10 S 1010,8 10 0,0
16.11.2019 19:00:00 1,8 1,4 -1,2 2 1 7 4 - 1010,2 10 0,0
16.11.2019 18:00:00 3,3 1,9 0,0 5 3 14 8 S 1009,5 10 0,0
16.11.2019 17:00:00 4,8 2,2 1,8 8 4 11 6 S 1009,2 10 0,0
16.11.2019 16:00:00 6,0 3,6 4,3 4 2 4 2 NW 1008,4 10 0,0
16.11.2019 15:00:00 6,9 3,5 7,0 2 1 11 6 SSW 1008,2 10 0,0
16.11.2019 14:00:00 6,2 3,6 6,2 11 6 14 8 SSW 1008,4 10 0,0
16.11.2019 13:00:00 5,3 2,8 5,6 5 3 11 6 SW 1008,4 10 0,0
16.11.2019 12:00:00 4,2 2,2 4,3 8 4 14 8 SSW 1008,3 10 0,0
16.11.2019 11:00:00 3,4 1,8 2,8 8 4 11 6 SSW 1008,3 10 0,0
16.11.2019 10:00:00 0,7 0,5 -0,2 4 2 7 4 S 1008,0 10 0,0
16.11.2019 09:00:00 -0,1 -0,1 -2,6 2 1 4 2 - 1007,7 8 0,0
16.11.2019 08:00:00 -0,6 -0,7 -3,0 2 1 4 2 - 1007,2 10 0,0
16.11.2019 07:00:00 0,1 0,1 -2,3 2 1 4 2 WSW 1006,3 9 0,0
16.11.2019 06:00:00 0,6 0,5 -1,4 0 0 4 2 N 1005,6 8 0,0
16.11.2019 05:00:00 0,4 0,1 -1,2 4 2 7 4 ENE 1005,7 6 0,0
16.11.2019 04:00:00 1,4 0,8 -0,5 2 1 7 4 SW 1005,6 10 0,0
16.11.2019 03:00:00 2,5 1,4 -0,3 4 2 7 4 - 1005,4 10 0,0
16.11.2019 02:00:00 2,5 1,9 -0,1 2 1 4 2 ESE 1005,3 8 0,0
16.11.2019 01:00:00 2,0 1,4 -0,1 2 1 7 4 - 1005,6 10 0,0
16.11.2019 00:00:00 2,6 1,8 0,3 2 1 7 4 S 1005,5 10 0,0
15.11.2019 23:00:00 4,4 2,2 2,4 5 3 7 4 S 1004,9 10 0,0
15.11.2019 22:00:00 5,1 2,4 3,4 5 3 11 6 SSE 1004,4 10 0,0
15.11.2019 21:00:00 5,5 2,5 4,3 9 5 14 8 SE 1003,9 10 0,0
15.11.2019 20:00:00 4,5 2,7 3,6 8 4 11 6 E 1003,5 10 0,0
15.11.2019 19:00:00 5,2 2,7 4,5 5 3 11 6 E 1002,8 10 0,0
15.11.2019 18:00:00 5,1 2,6 4,4 8 4 14 8 ESE 1002,0 10 0,0
15.11.2019 17:00:00 5,1 2,2 3,3 9 5 14 8 SSE 1001,4 10 0,0
15.11.2019 16:00:00 5,9 3,0 5,2 15 8 22 12 E 1000,8 10 0,0
15.11.2019 15:00:00 6,3 3,2 6,1 16 9 25 14 E 1000,6 10 0,0
15.11.2019 14:00:00 5,9 2,9 5,8 18 10 32 18 ENE 1000,4 10 0,0
15.11.2019 13:00:00 5,7 2,5 5,7 22 12 36 19 ENE 1000,5 10 0,0
15.11.2019 12:00:00 5,1 2,4 5,1 24 13 36 19 ENE 1000,5 10 0,0
15.11.2019 11:00:00 4,7 2,1 4,8 18 10 29 16 ENE 1000,3 10 0,0
15.11.2019 10:00:00 3,6 1,3 3,2 21 11 32 18 NE 1000,1 10 0,0
15.11.2019 09:00:00 3,1 1,1 2,6 18 10 29 16 NE 999,9 9 0,0
15.11.2019 08:00:00 2,5 0,9 1,8 21 11 32 18 NE 999,7 8 0,0
15.11.2019 07:00:00 1,9 0,7 1,2 21 11 32 18 NE 1000,0 6 0,0
15.11.2019 06:00:00 2,2 1,0 1,3 16 9 29 16 NE 1000,4 7 0,0
15.11.2019 05:00:00 2,6 1,1 1,7 13 7 22 12 NE 1000,7 7 0,0
15.11.2019 04:00:00 2,7 1,1 1,8 13 7 22 12 NE 1001,4 10 0,0
15.11.2019 03:00:00 2,9 1,4 1,9 13 7 22 12 NE 1001,7 10 0,0
15.11.2019 02:00:00 3,3 1,6 1,9 11 6 14 8 NE 1002,6 10 0,0
15.11.2019 01:00:00 3,5 1,8 1,8 8 4 14 8 NNE 1003,0 10 0,0
15.11.2019 00:00:00 3,0 1,5 1,9 11 6 18 10 ENE 1003,1 10 0,0
14.11.2019 23:00:00 3,9 2,3 2,6 9 5 14 8 NE 1003,2 10 0,0
14.11.2019 22:00:00 5,5 3,3 4,6 11 6 14 8 NE 1003,5 10 0,0
14.11.2019 21:00:00 5,4 3,7 4,7 9 5 11 6 ENE 1003,8 10 0,0
14.11.2019 20:00:00 5,8 3,7 5,2 5 3 7 4 ENE 1003,6 10 0,0
14.11.2019 19:00:00 6,2 3,7 5,5 8 4 11 6 E 1003,6 10 0,0
14.11.2019 18:00:00 6,5 3,7 5,8 8 4 11 6 ENE 1002,7 10 0,0
14.11.2019 17:00:00 7,0 3,8 6,4 11 6 14 8 E 1002,6 10 0,0
14.11.2019 16:00:00 7,6 3,6 7,1 8 4 22 12 SSE 1002,7 10 0,0
14.11.2019 15:00:00 7,6 3,5 7,3 11 6 22 12 SE 1001,5 10 0,0
14.11.2019 14:00:00 7,6 3,5 7,5 13 7 25 14 SE 1001,6 10 0,0
14.11.2019 13:00:00 7,4 3,8 7,2 16 9 29 16 SE 1001,5 10 0,0
14.11.2019 12:00:00 7,0 3,8 6,7 21 11 32 18 SE 1001,5 10 0,0
14.11.2019 11:00:00 6,3 3,3 5,7 21 11 32 18 ESE 1001,1 10 0,0
14.11.2019 10:00:00 5,8 3,4 5,5 16 9 29 16 ESE 1001,0 10 0,0
14.11.2019 09:00:00 5,2 3,0 4,3 16 9 25 14 ESE 1000,7 10 0,0
14.11.2019 08:00:00 4,4 2,7 3,5 15 8 25 14 ESE 1000,2 10 0,0
14.11.2019 07:00:00 4,4 2,6 3,4 16 9 25 14 ESE 999,8 10 0,0
14.11.2019 06:00:00 4,2 2,5 3,0 13 7 22 12 SE 999,4 10 0,0
14.11.2019 05:00:00 3,2 2,2 1,5 9 5 14 8 ESE 999,4 10 0,0
14.11.2019 04:00:00 3,4 2,1 1,8 9 5 18 10 SE 999,2 10 0,0
14.11.2019 03:00:00 4,5 2,9 3,6 13 7 22 12 SE 999,6 10 0,0
14.11.2019 02:00:00 4,1 3,1 2,9 11 6 18 10 SE 999,7 10 0,0
14.11.2019 01:00:00 4,2 3,1 2,9 11 6 18 10 SE 999,8 10 0,0
14.11.2019 00:00:00 4,2 3,2 3,0 9 5 18 10 SSE 1000,1 10 0,0
13.11.2019 23:00:00 5,3 4,0 4,7 13 7 22 12 S 1000,4 10 0,0
13.11.2019 22:00:00 5,6 4,3 4,4 11 6 18 10 S 1000,7 10 0,0
13.11.2019 21:00:00 5,8 4,8 5,0 11 6 22 12 S 1000,6 10 0,0
13.11.2019 20:00:00 5,4 4,6 4,5 11 6 22 12 SSE 1000,9 10 0,0
13.11.2019 19:00:00 5,2 4,5 4,6 8 4 14 8 SSE 1001,1 10 0,0
13.11.2019 18:00:00 5,2 4,5 4,3 9 5 14 8 S 1001,1 10 0,0
13.11.2019 17:00:00 4,7 4,5 2,1 4 2 11 6 S 1001,1 8 0,0
13.11.2019 16:00:00 6,4 5,3 6,2 15 8 25 14 WSW 1001,1 10 0,9
13.11.2019 15:00:00 6,9 5,6 6,9 5 3 14 8 - 1000,7 10 1,1
13.11.2019 14:00:00 7,6 6,3 7,5 11 6 18 10 SW 1000,5 10 0,0
13.11.2019 13:00:00 6,6 5,4 6,5 13 7 25 14 SSW 1000,5 10 0,5
13.11.2019 12:00:00 7,0 5,6 6,9 18 10 32 18 WSW 1000,7 10 0,5
13.11.2019 11:00:00 7,5 6,1 7,4 22 12 36 19 SW 1000,0 10 0,3
13.11.2019 10:00:00 6,5 5,7 6,4 21 11 29 16 SW 999,7 9 0,0
13.11.2019 09:00:00 6,0 5,3 5,8 21 11 32 18 SW 999,4 8 0,0
13.11.2019 08:00:00 5,6 4,9 5,1 21 11 29 16 SW 998,7 8 0,0
13.11.2019 07:00:00 5,5 4,8 5,1 21 11 29 16 SW 998,3 8 0,6
13.11.2019 06:00:00 4,8 4,0 4,2 22 12 32 18 SW 998,1 9 0,1
13.11.2019 05:00:00 4,9 3,8 4,6 24 13 36 19 SSW 998,0 10 0,3
13.11.2019 04:00:00 5,0 3,4 4,5 22 12 32 18 S 998,2 10 0,3
13.11.2019 03:00:00 4,8 3,1 4,5 18 10 29 16 S 998,3 10 0,1
13.11.2019 02:00:00 5,0 2,5 4,6 24 13 32 18 S 998,1 10 0,0
13.11.2019 01:00:00 5,1 2,3 4,6 22 12 36 19 SSW 998,1 10 0,0
13.11.2019 00:00:00 4,5 1,8 3,5 21 11 32 18 S 998,0 10 0,0
12.11.2019 23:00:00 4,8 1,9 4,0 22 12 40 21 SSW 998,3 10 0,0

tt = Température de l'air
td = dewpoint
tt 5cm = Température de l'air 5cm
ff = Vitesse du vent
fx = gusts
dd = Direction du vent
ppp = reduced air pressure
vv = visibility
rr = Quantités de précipitations

stations d'obs. à proximité